Wetbulb
37.87 38.45 38.80 38.87 39.23 39.75 40.07 40.32 39.69 39.82 40.16 40.36 40.20 40.16 40.28 40.44 40.72 41.16 41.59 41.71 42.15 42.48 42.85 43.30 43.50 43.73 43.66 43.46 43.58 43.87 44.24 44.61 44.89 44.74 44.67 45.16 45.92 46.45 46.94 47.42 47.96 48.33 48.69 49.02 49.21 49.22 49.04 48.56 48.10 47.78 47.41 46.90 47.04 47.22 47.71 48.42 49.39 50.14 50.85 51.58 52.72 53.83 54.65 55.12 55.39 55.62 55.75 55.71 55.71
38.04 38.21 38.08 37.83 37.94 38.80 39.62 39.51 39.28 39.28 39.45 39.89 39.89 39.65 39.69 39.97 40.28 40.60 40.72 40.76 41.56 42.08 42.44 43.01 42.42 42.38 42.51 42.55 42.96 43.29 43.57 43.86 44.02 44.20 44.37 44.66 45.30 45.74 46.13 46.65 47.05 47.63 47.99 48.45 48.77 49.04 49.04 48.56 48.07 47.70 47.38 46.94 46.73 46.56 46.87 47.50 48.12 48.68 49.25 49.82 50.90 52.09 53.19 54.08 54.90 55.35 55.75 55.80 55.85
38.16 38.19 38.19 38.37 38.28 38.55 38.80 38.87 38.67 38.23 38.04 38.59 39.10 39.30 39.41 39.81 40.28 40.60 40.84 40.88 40.84 41.04 41.53 42.12 41.64 41.30 41.39 41.88 42.59 42.96 43.17 43.33 43.46 43.66 43.95 44.37 44.58 44.80 45.10 45.75 46.14 46.54 47.08 47.74 48.28 48.68 48.68 48.34 47.81 47.36 47.04 47.03 46.60 46.43 46.52 46.83 47.05 47.71 48.41 48.90 49.74 50.60 51.42 52.20 53.25 54.39 55.17 55.58 55.67
37.92 38.05 38.11 37.91 37.47 37.09 37.23 38.04 37.61 37.39 37.66 38.68 38.58 38.67 38.91 39.53 40.09 40.40 40.36 39.67 39.73 40.22 40.59 40.79 40.79 40.84 40.98 41.35 41.75 42.17 42.51 42.42 42.67 42.96 43.21 43.54 43.79 43.96 44.22 44.65 44.94 45.50 46.24 47.12 47.53 47.88 48.07 47.89 47.85 47.63 47.31 46.96 46.52 46.30 46.39 46.69 46.88 47.36 48.07 48.68 49.30 49.80 50.25 50.98 52.02 53.03 54.03 54.71 55.35
37.24 37.50 37.60 37.47 37.06 36.75 36.72 36.85 36.74 36.97 37.40 38.01 38.68 38.99 39.11 39.21 39.51 39.50 39.41 39.32 39.67 40.12 40.28 39.74 40.20 40.53 40.62 40.69 40.89 41.29 41.54 41.71 41.45 42.04 42.71 42.71 42.92 43.17 43.50 43.67 43.88 44.39 45.04 46.08 46.69 47.01 47.32 47.23 47.71 47.76 47.50 47.15 46.97 46.79 46.57 46.57 46.88 47.41 47.85 48.33 48.72 49.09 49.72 50.18 50.94 51.75 52.44 53.27 54.22
36.44 36.60 36.72 36.76 36.68 36.55 36.55 36.74 36.62 36.93 37.35 37.75 37.78 38.18 38.76 39.30 39.50 39.42 39.26 39.30 39.53 39.44 39.07 38.77 39.02 39.19 39.51 39.99 40.26 40.57 40.82 41.11 41.24 41.53 41.70 41.60 41.91 42.09 42.26 42.55 43.04 43.54 44.18 44.87 45.64 46.30 46.66 46.97 47.32 47.41 47.32 47.19 47.01 46.92 46.75 46.61 46.88 47.19 47.50 47.54 47.89 48.37 48.91 49.24 49.95 50.63 51.22 51.73 52.58
35.90 35.85 35.98 35.98 35.98 36.11 36.27 36.52 36.74 36.97 37.25 37.45 37.20 37.37 37.71 38.16 38.34 38.21 38.28 38.92 39.12 39.09 38.80 38.53 38.56 38.67 38.87 39.12 39.43 39.69 39.92 40.15 40.36 40.40 40.36 40.66 40.81 41.01 41.11 41.56 42.02 42.44 42.86 43.50 44.43 45.34 46.13 46.39 46.83 46.79 46.43 46.17 46.48 46.48 46.30 46.21 46.30 46.48 46.57 46.52 47.01 47.53 48.12 48.53 49.10 49.73 50.14 50.46 51.04
35.87 35.87 35.82 35.75 35.83 35.84 36.03 36.41 36.72 37.00 37.32 37.96 37.64 37.35 37.14 37.26 37.37 37.57 37.94 38.22 38.62 38.50 38.40 38.36 38.29 38.31 38.31 38.35 38.42 38.57 38.61 38.72 39.07 39.26 39.48 39.71 39.76 39.99 40.25 40.53 40.75 41.12 41.57 42.11 42.90 43.79 44.82 45.64 46.08 46.12 46.07 45.94 46.12 45.99 45.67 45.45 45.41 45.63 45.81 45.72 46.30 46.83 47.54 48.04 48.62 49.07 49.43 49.79 50.19
35.99 36.02 36.02 36.02 36.11 36.15 36.29 36.48 36.62 36.91 37.29 37.55 37.39 37.21 37.21 37.14 36.92 36.94 37.17 37.65 37.72 37.52 37.52 37.79 37.62 37.53 37.53 37.46 37.49 37.71 38.00 38.15 38.30 38.47 38.62 38.84 38.84 39.06 39.27 39.56 39.55 39.82 40.25 40.70 41.02 41.58 42.48 43.83 44.77 45.24 45.45 45.59 45.63 45.50 45.23 44.69 44.56 44.78 45.18 45.45 45.77 46.17 46.75 47.41 47.95 48.35 48.67 49.12 49.39
35.68 35.81 35.91 36.09 36.26 36.40 36.55 36.55 36.77 36.73 36.80 37.06 37.01 37.03 36.97 36.62 36.50 36.45 36.73 37.42 36.98 36.97 37.01 37.15 37.07 36.92 36.83 36.87 37.19 37.50 37.69 37.86 38.00 38.05 38.11 38.17 38.20 38.20 38.44 38.61 38.77 38.81 39.05 39.49 39.83 40.12 40.68 41.70 42.91 43.88 44.70 45.05 45.00 44.87 44.69 44.42 44.06 44.15 44.51 44.96 44.96 45.23 45.76 46.57 47.15 47.46 47.91 48.31 48.67
35.50 35.67 35.91 36.22 36.27 36.54 36.78 36.58 36.91 37.02 37.10 37.21 37.03 36.91 36.81 36.43 36.40 36.43 36.53 36.60 36.35 36.36 36.46 36.63 36.61 36.79 36.96 37.14 37.44 37.64 37.82 38.00 38.10 37.95 37.88 37.80 37.84 37.87 38.03 38.22 38.18 38.18 38.26 38.53 38.99 39.29 39.75 40.29 41.00 42.03 42.94 44.05 44.26 44.48 44.47 44.24 43.97 43.92 44.10 44.46 44.37 44.46 44.78 45.45 46.21 46.79 47.19 47.55 48.09
35.92 35.95 36.16 36.35 36.45 36.62 36.81 36.73 37.12 37.16 37.14 36.98 36.88 36.81 36.77 36.87 36.53 36.35 36.21 36.08 36.01 36.28 36.62 36.84 37.08 37.24 37.52 37.98 37.93 38.01 38.14 38.06 37.90 37.82 37.62 37.54 37.61 37.64 37.67 37.74 37.78 37.82 37.94 38.07 38.42 38.74 39.06 39.21 39.63 40.17 41.08 42.27 43.29 43.97 44.13 43.94 43.89 43.84 43.92 43.97 44.06 43.92 43.97 44.46 45.27 45.99 46.48 47.06 47.51
36.45 36.44 36.46 36.56 36.52 36.43 36.51 36.62 36.94 36.90 36.89 36.65 36.62 36.73 36.81 36.76 36.47 36.28 36.10 36.01 36.28 36.94 37.56 37.57 37.60 37.79 37.95 38.23 38.31 38.32 38.28 38.16 37.83 37.55 37.38 37.29 37.28 37.27 37.30 37.38 37.41 37.49 37.57 37.74 38.06 38.31 38.44 38.60 38.79 39.14 39.73 40.75 42.16 43.17 43.81 43.92 43.86 43.80 43.75 43.61 43.61 43.56 43.52 43.66 44.38 45.14 45.86 46.48 46.83
36.77 36.66 36.50 36.49 36.22 36.29 36.40 36.38 36.69 36.74 36.65 36.33 36.37 36.41 36.51 36.49 36.38 36.43 36.40 36.43 36.70 37.18 37.57 37.76 37.91 38.14 38.26 38.13 38.17 38.12 38.00 37.88 37.63 37.41 37.12 37.08 37.08 37.07 36.98 37.06 37.18 37.26 37.34 37.58 37.77 37.82 37.87 37.96 38.21 38.46 38.90 39.69 40.89 42.13 43.22 44.03 43.97 43.73 43.58 43.40 43.26 43.08 43.08 43.00 43.58 44.43 45.18 45.63 45.85
36.85 36.66 36.55 36.36 36.09 36.23 36.33 36.10 36.56 36.61 36.44 36.08 36.22 36.29 36.31 36.56 36.52 36.58 36.57 36.53 36.77 37.14 37.47 37.63 37.83 37.95 37.98 38.02 37.97 37.87 37.74 37.69 37.47 37.25 36.99 36.87 36.83 36.83 36.75 36.75 36.87 36.99 37.16 37.35 37.51 37.54 37.55 37.56 37.78 38.00 38.41 38.94 39.94 41.16 42.60 43.70 43.98 44.05 43.68 43.41 43.09 42.90 42.77 42.81 43.13 43.67 44.42 45.04 45.08
36.85 36.56 36.45 36.33 36.02 36.05 36.10 36.11 36.71 36.62 36.26 36.26 35.99 35.88 36.04 36.43 36.62 36.56 36.36 36.33 36.76 37.02 37.19 37.08 37.25 37.51 37.64 37.67 37.58 37.53 37.47 37.41 37.31 37.25 37.07 36.89 36.73 36.73 36.64 36.56 36.64 36.69 36.82 36.90 36.94 37.17 37.32 37.44 37.70 37.84 38.06 38.47 39.34 40.43 41.66 43.02 43.82 44.10 44.08 43.63 43.36 42.96 42.87 42.77 42.77 43.08 43.70 44.51 44.59
36.61 36.49 36.34 36.27 35.95 35.82 35.79 35.97 36.33 36.33 36.18 35.91 35.55 35.57 35.87 36.34 36.73 36.61 36.35 36.27 36.60 36.61 36.55 36.44 36.81 36.96 37.01 36.92 37.17 37.14 37.09 37.08 37.23 37.21 37.15 37.09 36.95 36.81 36.63 36.59 36.55 36.61 36.69 36.65 36.69 36.76 36.83 37.15 37.48 37.73 37.94 38.20 38.87 39.77 40.83 42.18 43.39 44.11 44.23 43.95 43.59 43.33 43.06 42.88 42.78 42.95 43.26 44.02 44.19
36.47 36.43 36.35 36.13 35.92 35.65 35.54 35.54 35.79 35.70 35.48 35.27 35.44 35.61 35.96 36.24 36.28 36.35 36.36 36.24 36.31 36.10 35.86 35.92 36.22 36.37 36.40 36.37 36.60 36.82 36.96 37.00 37.16 37.18 37.25 37.43 37.45 37.35 37.13 36.92 36.88 36.86 36.75 36.71 36.58 36.53 36.59 36.79 37.16 37.51 37.70 37.96 38.63 39.43 40.41 41.60 42.88 43.72 44.10 44.14 43.91 43.60 43.34 43.25 43.20 43.10 43.23 43.58 43.76
36.55 36.47 36.36 36.03 35.89 35.65 35.54 35.50 35.40 35.43 35.41 35.34 35.68 35.80 35.84 35.86 35.92 36.00 36.16 36.09 36.05 35.86 35.66 35.63 35.91 36.01 36.05 36.07 36.44 36.67 36.90 37.07 37.18 37.21 37.41 37.55 37.66 37.66 37.66 37.32 37.21 36.98 36.84 36.73 36.56 36.57 36.60 36.76 36.93 37.12 37.36 37.54 38.17 38.92 39.74 40.89 42.33 43.37 43.87 44.04 43.92 43.78 43.52 43.43 43.47 43.51 43.37 43.41 43.64
36.51 36.37 36.18 36.00 35.86 35.76 35.72 35.74 35.70 35.76 35.73 35.98 35.79 35.62 35.62 35.62 35.65 35.65 35.57 35.62 35.84 35.77 35.73 35.66 35.83 36.01 36.11 36.22 36.43 36.70 36.94 37.17 37.28 37.35 37.47 37.54 37.65 37.78 37.76 37.61 37.32 37.09 36.99 36.78 36.60 36.55 36.57 36.53 36.54 36.75 36.84 37.07 37.47 38.10 38.87 40.01 41.56 42.85 43.70 44.00 43.87 43.70 43.61 43.57 43.66 43.61 43.61 43.47 43.61
36.26 36.12 36.04 36.04 35.94 35.86 35.96 36.13 36.09 35.98 35.90 35.86 35.53 35.44 35.36 35.41 35.36 35.29 35.28 35.40 35.62 35.74 35.71 35.94 36.06 36.15 36.20 36.21 36.34 36.56 36.88 37.16 37.30 37.42 37.38 37.64 37.59 37.68 37.62 37.51 37.22 36.95 36.86 36.63 36.57 36.49 36.36 36.23 36.31 36.34 36.46 36.71 37.02 37.61 38.26 39.29 40.79 42.16 43.30 43.99 43.86 43.64 43.52 43.52 43.61 43.65 43.57 43.48 43.57
35.90 36.05 36.08 36.12 36.11 36.14 36.20 36.32 36.27 36.11 35.84 35.59 35.50 35.45 35.29 35.26 35.18 35.31 35.36 35.57 35.57 35.64 35.81 35.94 35.97 36.11 36.13 36.09 36.20 36.34 36.71 37.01 37.35 37.47 37.50 37.65 37.61 37.59 37.56 37.44 37.28 36.88 36.54 36.33 36.33 36.40 36.28 36.22 36.29 36.40 36.51 36.51 36.85 37.23 37.89 38.57 39.99 41.50 42.85 43.54 43.45 43.37 43.29 43.38 43.47 43.43 43.39 43.34 43.34
35.75 35.97 36.18 36.40 36.39 36.30 36.23 36.28 36.18 36.01 35.81 35.54 35.38 35.33 35.25 35.20 35.27 35.29 35.27 35.42 35.61 35.82 35.94 35.99 35.91 36.12 36.15 36.30 36.38 36.48 36.64 36.86 37.21 37.35 37.54 37.66 37.59 37.60 37.57 37.50 37.17 36.80 36.51 36.32 36.32 36.39 36.33 36.27 36.52 36.68 36.76 36.81 36.99 37.31 37.82 38.34 39.55 41.03 42.36 42.96 42.95 42.91 42.87 43.10 43.19 43.19 43.20 43.15 43.11
35.68 35.93 36.26 36.67 36.47 36.42 36.40 36.60 36.43 36.17 35.85 35.52 35.40 35.26 35.19 35.13 35.09 35.02 35.08 35.11 35.57 35.74 35.81 35.99 36.10 36.21 36.31 36.52 36.51 36.52 36.45 36.54 36.70 36.74 36.79 37.24 37.15 36.99 36.89 36.86 36.47 36.28 36.20 36.34 36.41 36.48 36.38 36.15 36.39 36.69 36.91 37.10 37.35 37.60 38.18 38.79 39.91 41.18 42.14 42.56 42.41 42.36 42.41 42.50 42.68 42.68 42.64 42.64 42.55
35.35 35.48 35.74 36.04 36.11 36.25 36.39 36.45 36.26 36.09 35.91 35.80 35.65 35.48 35.25 34.95 34.81 34.67 34.67 34.85 35.02 35.24 35.47 35.54 35.65 35.81 36.10 36.21 36.30 36.29 36.35 36.24 36.26 36.20 36.24 36.34 36.49 36.45 36.31 36.07 35.87 35.99 36.15 36.25 36.49 36.58 36.49 36.11 36.49 36.59 36.82 37.16 37.46 38.11 38.81 39.48 40.64 41.52 42.00 42.19 41.96 41.72 41.55 41.55 41.64 41.68 41.68 41.82 41.77
34.91 34.98 35.17 35.33 35.47 35.65 35.72 35.72 35.72 35.84 35.81 35.88 35.63 35.29 34.85 34.53 34.34 34.26 34.22 34.39 34.65 34.88 34.96 34.98 35.08 35.14 35.37 35.57 35.75 35.78 35.86 35.93 35.83 35.86 35.76 35.66 35.64 35.71 35.65 35.48 35.54 35.85 36.21 36.43 36.25 36.26 36.28 36.52 36.47 36.31 36.30 36.93 37.28 37.84 38.52 39.44 40.56 41.54 42.06 42.01 41.68 41.23 40.77 40.41 40.37 40.37 40.46 40.68 40.69
34.15 34.15 34.33 34.71 34.66 34.66 34.75 34.94 35.09 35.11 35.03 34.90 34.76 34.49 34.16 33.90 33.69 33.56 33.61 33.79 34.05 34.26 34.50 34.38 34.58 34.62 34.70 35.18 35.12 35.07 35.16 35.27 35.31 35.33 35.31 35.20 35.10 35.06 35.05 35.00 35.25 35.67 36.19 36.50 36.31 36.28 36.41 36.62 36.74 36.56 36.46 36.83 37.10 37.56 38.08 39.08 40.23 41.09 41.61 41.74 41.28 40.74 40.15 39.48 39.20 38.97 39.01 39.14 39.20
33.22 33.36 33.58 33.70 33.52 33.53 33.78 33.97 33.92 33.92 33.89 33.91 33.86 33.66 33.31 33.06 32.73 32.75 32.87 33.18 33.35 33.56 33.72 33.79 34.07 34.22 34.36 34.34 34.34 34.33 34.28 34.35 34.45 34.61 34.72 34.70 34.57 34.43 34.51 34.67 34.96 35.48 35.95 36.28 36.31 36.43 36.60 36.88 37.01 37.08 36.94 36.47 37.29 37.90 38.41 39.07 39.92 40.73 41.15 41.27 40.73 40.20 39.62 38.95 38.54 38.12 37.84 37.65 37.65
32.45 32.55 32.53 32.50 32.39 32.43 32.58 32.55 32.42 32.50 32.70 32.83 32.89 32.73 32.50 32.28 32.16 32.15 32.19 32.49 32.64 32.68 32.70 33.07 33.43 33.59 33.61 33.39 33.34 33.45 33.67 33.64 33.85 33.92 34.00 34.02 33.91 33.93 34.21 34.38 34.60 34.96 35.39 35.95 36.12 36.28 36.48 36.73 36.88 37.03 37.10 37.25 37.80 38.30 39.04 39.58 40.11 40.48 40.64 40.50 39.92 39.48 39.04 38.55 38.05 37.54 36.95 36.58 36.44
31.69 31.68 31.53 31.31 31.20 31.28 31.29 31.31 31.34 31.56 31.84 32.06 32.11 31.93 31.65 31.34 31.27 31.40 31.55 31.58 31.76 31.95 32.19 32.53 32.77 32.61 32.66 32.63 32.75 32.83 32.85 33.01 33.25 33.43 33.41 33.47 33.47 33.60 33.75 34.06 34.50 34.99 35.36 35.80 35.97 36.19 36.48 36.64 36.72 36.82 36.89 37.16 37.55 38.24 39.15 39.95 40.38 40.32 40.05 39.65 39.16 38.77 38.46 38.06 37.43 36.79 36.37 36.05 35.68
30.67 30.55 30.43 30.25 30.18 30.23 30.37 30.55 30.77 30.96 31.11 31.28 31.30 31.06 30.77 30.48 30.48 30.62 30.79 30.99 31.25 31.61 31.93 32.19 32.07 31.82 31.71 31.80 31.97 32.11 32.23 32.51 32.73 32.87 33.01 33.04 33.11 33.21 33.54 33.89 34.32 34.71 35.13 35.70 35.84 36.14 36.38 36.63 36.71 36.73 36.80 36.78 37.13 38.02 39.27 40.08 40.24 40.01 39.56 38.93 38.36 38.10 37.80 37.44 36.86 36.36 35.95 35.63 35.21
29.74 29.50 29.42 29.33 29.32 29.41 29.63 29.92 30.09 30.25 30.34 30.47 30.43 30.16 29.96 29.87 30.01 30.22 30.45 30.72 31.00 31.14 31.21 31.16 31.14 31.04 30.97 31.04 31.34 31.50 31.68 31.92 32.16 32.45 32.72 32.89 32.98 33.19 33.55 33.88 34.23 34.54 34.83 35.51 35.78 36.04 36.25 36.53 36.65 36.71 36.60 36.56 36.89 37.89 39.11 40.03 40.01 39.65 39.03 38.46 37.89 37.63 37.42 37.01 36.46 36.01 35.65 35.30 35.02
28.73 28.62 28.57 28.60 28.68 28.79 29.03 29.36 29.49 29.61 29.72 29.77 29.67 29.58 29.43 29.44 29.42 29.68 29.95 30.27 30.39 30.31 30.24 30.25 30.21 30.17 30.27 30.35 30.66 30.96 31.23 31.55 31.88 32.21 32.51 32.72 33.02 33.12 33.37 33.67 34.22 34.69 35.05 35.49 35.75 35.96 36.12 36.37 36.52 36.63 36.55 36.39 37.17 38.27 39.33 40.01 39.56 39.02 38.44 37.87 37.53 37.33 37.03 36.58 36.15 35.83 35.54 35.29 35.18
27.81 27.98 28.13 28.05 28.11 28.26 28.39 28.51 28.51 28.55 28.62 28.73 28.75 28.77 28.85 28.80 28.72 28.80 29.13 29.39 29.66 29.68 29.75 29.73 29.82 29.98 30.19 30.43 30.59 30.74 31.13 31.58 31.93 32.24 32.59 32.89 33.12 33.27 33.41 33.73 34.53 35.11 35.51 35.64 35.85 36.01 36.21 36.36 36.60 36.67 36.64 36.35 37.34 38.48 39.37 39.41 38.78 38.11 37.62 37.18 36.97 36.64 36.47 36.04 35.81 35.55 35.35 35.24 35.12
27.46 27.51 27.48 27.31 27.48 27.51 27.56 27.51 27.50 27.51 27.55 27.50 27.68 27.82 27.98 28.10 28.04 28.15 28.39 28.78 29.09 29.18 29.30 29.43 29.73 30.01 30.26 30.56 30.76 30.85 31.07 31.42 31.84 32.28 32.56 32.88 33.07 33.18 33.33 33.70 34.41 35.05 35.56 35.75 35.95 36.19 36.34 36.58 36.68 36.75 36.63 36.51 37.66 38.45 38.72 38.23 37.47 36.98 36.58 36.23 35.96 35.71 35.45 35.19 35.12 35.14 35.08 35.01 34.76
27.15 26.97 26.70 26.59 26.68 26.65 26.59 26.52 26.55 26.65 26.65 26.55 26.55 26.80 27.16 27.39 27.61 27.89 28.22 28.53 28.62 28.63 28.62 28.82 29.31 29.61 29.71 29.85 30.35 30.61 30.88 31.17 31.58 31.95 32.37 32.81 32.88 33.06 33.17 33.64 34.24 34.86 35.44 35.68 36.01 36.20 36.48 36.67 36.74 36.63 36.74 37.09 37.73 37.86 37.55 36.88 36.34 35.90 35.41 35.10 34.78 34.51 34.29 34.17 34.26 34.32 34.48 34.37 34.02
26.81 26.52 26.25 25.99 25.95 25.98 25.98 25.95 25.89 25.89 25.90 25.91 26.14 26.39 26.64 26.97 27.16 27.55 27.99 28.33 28.20 27.99 27.95 28.21 28.50 28.85 29.06 29.25 29.62 30.14 30.60 31.06 31.44 31.75 32.10 32.56 32.71 32.89 33.07 33.50 34.14 34.50 34.95 35.63 35.97 36.22 36.52 36.68 36.72 36.70 36.79 37.25 37.10 36.56 35.98 35.54 35.09 34.64 34.24 33.79 33.56 33.47 33.38 33.38 33.47 33.43 33.45 33.39 33.11
26.34 26.12 25.84 25.53 25.40 25.49 25.52 25.63 25.45 25.38 25.47 25.67 25.90 26.18 26.60 26.82 27.04 27.32 27.63 27.99 27.78 27.59 27.49 27.62 27.99 28.34 28.73 29.23 29.62 30.21 30.80 31.36 31.72 31.89 32.18 32.62 33.00 33.11 33.29 33.57 34.13 34.62 35.03 35.61 35.97 36.33 36.59 36.85 36.89 36.94 36.83 36.44 35.72 35.18 34.74 34.31 33.77 33.36 32.91 32.71 32.57 32.55 32.64 32.82 32.82 32.79 32.71 32.57 32.79
26.28 26.03 25.74 25.46 25.22 25.24 25.38 25.32 25.26 25.16 25.24 25.50 25.70 25.92 26.29 26.51 26.81 27.26 27.73 27.96 27.83 27.73 27.66 27.70 27.97 28.47 29.00 29.54 29.96 30.39 31.00 31.65 32.05 32.49 32.73 33.06 33.43 33.66 33.78 33.81 34.23 34.65 35.16 35.71 36.03 36.43 36.77 37.20 37.33 37.07 36.36 35.24 34.53 34.26 33.87 33.24 32.69 32.31 32.03 31.83 31.72 31.71 31.87 32.05 32.16 32.12 32.17 32.46 33.33
26.27 26.05 25.83 25.58 25.34 25.23 25.14 25.08 25.05 25.16 25.35 25.47 25.53 25.70 25.89 26.26 26.59 27.15 27.67 27.87 27.99 28.01 28.06 28.26 28.47 28.89 29.60 30.08 30.32 30.77 31.15 31.84 32.51 32.96 33.18 33.37 33.78 34.06 34.19 33.91 34.18 34.58 35.04 35.63 36.17 36.69 37.10 37.43 36.99 36.35 35.45 34.26 33.99 33.68 33.17 32.59 31.99 31.56 31.33 31.24 31.06 30.95 31.06 31.31 31.56 31.74 31.83 32.17 32.94
26.18 25.99 25.74 25.55 25.41 25.22 25.05 24.88 24.91 25.05 25.29 25.32 25.36 25.57 25.94 26.35 26.56 26.98 27.46 27.72 27.99 28.26 28.58 28.86 29.08 29.61 30.06 30.44 30.69 31.01 31.31 31.70 32.25 32.73 33.07 33.22 33.49 33.84 34.02 33.93 34.14 34.41 34.84 35.63 36.48 36.83 36.93 36.77 36.14 35.53 34.77 33.67 33.58 33.32 32.83 32.18 31.52 30.93 30.70 30.72 30.61 30.47 30.52 30.70 30.97 31.24 31.33 31.36 31.47
MSLP
1016.03 1015.95 1015.83 1015.79 1015.71 1015.67 1015.59 1015.55 1015.47 1015.39 1015.39 1015.35 1015.27 1015.19 1015.11 1015.07 1014.99 1014.83 1014.71 1014.63 1014.55 1014.43 1014.31 1014.23 1014.11 1013.99 1013.87 1013.79 1013.67 1013.55 1013.47 1013.35 1013.27 1013.11 1012.99 1012.87 1012.71 1012.55 1012.39 1012.19 1012.03 1011.87 1011.75 1011.63 1011.55 1011.43 1011.39 1011.31 1011.35 1011.27 1011.27 1011.27 1011.27 1011.27 1011.27 1011.27 1011.27 1011.23 1011.15 1011.07 1010.95 1010.83 1010.71 1010.63 1010.39 1010.19 1009.99 1009.87 1009.79
1015.95 1015.83 1015.79 1015.71 1015.67 1015.63 1015.55 1015.51 1015.39 1015.35 1015.27 1015.23 1015.11 1015.07 1014.99 1014.95 1014.83 1014.71 1014.55 1014.51 1014.39 1014.31 1014.23 1014.11 1013.99 1013.95 1013.83 1013.71 1013.67 1013.59 1013.51 1013.39 1013.27 1013.15 1013.07 1012.95 1012.79 1012.67 1012.55 1012.35 1012.15 1011.99 1011.83 1011.67 1011.55 1011.43 1011.35 1011.27 1011.27 1011.19 1011.11 1011.03 1011.03 1010.99 1010.99 1011.03 1011.15 1011.15 1011.07 1010.95 1010.87 1010.83 1010.67 1010.55 1010.35 1010.15 1009.95 1009.67 1009.55
1015.91 1015.83 1015.71 1015.67 1015.67 1015.59 1015.55 1015.47 1015.39 1015.35 1015.27 1015.15 1015.03 1014.95 1014.83 1014.75 1014.67 1014.59 1014.47 1014.35 1014.23 1014.15 1014.11 1013.99 1013.91 1013.83 1013.79 1013.67 1013.59 1013.55 1013.47 1013.39 1013.27 1013.15 1013.07 1012.95 1012.83 1012.71 1012.59 1012.47 1012.27 1012.11 1011.95 1011.75 1011.55 1011.39 1011.27 1011.19 1011.15 1011.11 1010.99 1010.91 1010.91 1010.83 1010.79 1010.83 1010.95 1010.99 1010.91 1010.83 1010.75 1010.67 1010.55 1010.39 1010.23 1010.11 1009.95 1009.67 1009.39
1015.83 1015.79 1015.71 1015.67 1015.63 1015.55 1015.51 1015.39 1015.39 1015.27 1015.15 1015.03 1014.95 1014.87 1014.79 1014.67 1014.59 1014.43 1014.31 1014.15 1014.11 1014.03 1013.95 1013.83 1013.79 1013.71 1013.67 1013.59 1013.51 1013.43 1013.35 1013.27 1013.23 1013.15 1013.07 1012.95 1012.83 1012.71 1012.67 1012.55 1012.39 1012.23 1012.03 1011.83 1011.63 1011.39 1011.27 1011.11 1011.03 1010.95 1010.83 1010.75 1010.75 1010.67 1010.63 1010.55 1010.67 1010.71 1010.67 1010.67 1010.63 1010.55 1010.43 1010.27 1010.11 1009.99 1009.83 1009.67 1009.39
1015.75 1015.67 1015.63 1015.55 1015.51 1015.43 1015.39 1015.31 1015.27 1015.15 1015.07 1014.95 1014.87 1014.79 1014.67 1014.55 1014.43 1014.35 1014.23 1014.11 1013.95 1013.87 1013.75 1013.67 1013.63 1013.55 1013.51 1013.43 1013.39 1013.35 1013.27 1013.23 1013.19 1013.11 1012.99 1012.91 1012.79 1012.67 1012.63 1012.55 1012.39 1012.27 1012.07 1011.83 1011.63 1011.39 1011.23 1011.11 1010.99 1010.83 1010.67 1010.63 1010.55 1010.47 1010.43 1010.43 1010.47 1010.47 1010.47 1010.43 1010.43 1010.39 1010.27 1010.15 1009.99 1009.91 1009.83 1009.67 1009.43
1015.63 1015.55 1015.47 1015.43 1015.35 1015.27 1015.19 1015.11 1015.07 1014.99 1014.87 1014.83 1014.83 1014.71 1014.63 1014.47 1014.31 1014.19 1014.11 1013.99 1013.83 1013.67 1013.59 1013.55 1013.47 1013.39 1013.35 1013.31 1013.27 1013.23 1013.23 1013.15 1013.11 1012.99 1012.95 1012.87 1012.75 1012.67 1012.55 1012.47 1012.35 1012.23 1012.07 1011.83 1011.59 1011.39 1011.19 1011.07 1010.87 1010.67 1010.55 1010.47 1010.39 1010.27 1010.27 1010.27 1010.27 1010.27 1010.27 1010.23 1010.15 1010.15 1010.11 1010.03 1009.91 1009.83 1009.75 1009.63 1009.47
1015.43 1015.39 1015.31 1015.27 1015.15 1015.07 1014.99 1014.95 1014.83 1014.79 1014.71 1014.71 1014.67 1014.63 1014.51 1014.35 1014.23 1014.11 1013.95 1013.83 1013.67 1013.59 1013.51 1013.39 1013.31 1013.27 1013.27 1013.23 1013.15 1013.11 1013.11 1013.07 1012.99 1012.91 1012.87 1012.83 1012.67 1012.55 1012.51 1012.39 1012.27 1012.15 1011.99 1011.79 1011.55 1011.35 1011.11 1010.99 1010.83 1010.63 1010.43 1010.35 1010.27 1010.11 1010.11 1010.11 1010.11 1010.11 1010.03 1009.95 1009.95 1009.95 1009.95 1009.83 1009.75 1009.67 1009.63 1009.51 1009.39
1015.23 1015.15 1015.07 1014.99 1014.95 1014.87 1014.83 1014.75 1014.67 1014.67 1014.59 1014.59 1014.55 1014.43 1014.31 1014.19 1014.11 1013.95 1013.79 1013.67 1013.59 1013.47 1013.35 1013.27 1013.23 1013.19 1013.15 1013.11 1013.11 1013.03 1012.99 1012.91 1012.83 1012.75 1012.71 1012.67 1012.55 1012.47 1012.35 1012.27 1012.11 1011.99 1011.87 1011.75 1011.55 1011.35 1011.11 1010.99 1010.79 1010.55 1010.39 1010.27 1010.11 1009.99 1009.91 1009.95 1009.91 1009.83 1009.83 1009.71 1009.67 1009.67 1009.71 1009.63 1009.55 1009.55 1009.43 1009.31 1009.23
1015.11 1015.03 1014.91 1014.83 1014.75 1014.71 1014.67 1014.55 1014.55 1014.55 1014.51 1014.39 1014.35 1014.27 1014.11 1013.95 1013.87 1013.79 1013.67 1013.55 1013.43 1013.31 1013.23 1013.15 1013.11 1013.07 1013.03 1012.99 1012.99 1012.87 1012.83 1012.75 1012.67 1012.59 1012.55 1012.51 1012.39 1012.27 1012.15 1012.07 1011.95 1011.83 1011.71 1011.59 1011.51 1011.35 1011.15 1010.99 1010.75 1010.51 1010.27 1010.11 1009.95 1009.79 1009.67 1009.71 1009.71 1009.67 1009.55 1009.51 1009.43 1009.39 1009.39 1009.39 1009.35 1009.31 1009.23 1009.11 1008.99
1015.07 1014.95 1014.83 1014.75 1014.63 1014.55 1014.51 1014.43 1014.39 1014.31 1014.27 1014.23 1014.11 1013.99 1013.91 1013.79 1013.67 1013.59 1013.51 1013.39 1013.27 1013.23 1013.15 1013.11 1013.03 1012.99 1012.95 1012.87 1012.83 1012.79 1012.71 1012.63 1012.55 1012.51 1012.39 1012.31 1012.27 1012.15 1012.03 1011.91 1011.83 1011.67 1011.55 1011.47 1011.39 1011.27 1011.11 1010.91 1010.67 1010.39 1010.15 1009.99 1009.79 1009.59 1009.51 1009.51 1009.51 1009.43 1009.35 1009.27 1009.23 1009.15 1009.11 1009.11 1009.11 1009.07 1008.99 1008.91 1008.75
1014.95 1014.83 1014.71 1014.63 1014.55 1014.43 1014.35 1014.27 1014.23 1014.15 1014.11 1013.99 1013.91 1013.83 1013.71 1013.59 1013.51 1013.39 1013.31 1013.23 1013.23 1013.15 1013.07 1012.99 1012.99 1012.91 1012.83 1012.75 1012.71 1012.67 1012.55 1012.51 1012.39 1012.35 1012.27 1012.15 1012.07 1011.95 1011.87 1011.79 1011.67 1011.55 1011.43 1011.31 1011.27 1011.19 1010.99 1010.79 1010.55 1010.27 1009.99 1009.83 1009.67 1009.47 1009.31 1009.27 1009.23 1009.15 1009.03 1008.99 1008.99 1008.95 1008.91 1008.83 1008.83 1008.83 1008.75 1008.63 1008.51
1014.79 1014.63 1014.51 1014.39 1014.31 1014.27 1014.23 1014.15 1014.07 1013.95 1013.87 1013.83 1013.67 1013.63 1013.55 1013.43 1013.35 1013.27 1013.15 1013.11 1013.11 1013.03 1012.99 1012.91 1012.87 1012.83 1012.79 1012.71 1012.63 1012.55 1012.51 1012.39 1012.35 1012.27 1012.15 1012.03 1011.91 1011.83 1011.71 1011.59 1011.51 1011.39 1011.27 1011.11 1011.11 1011.03 1010.83 1010.55 1010.31 1010.07 1009.83 1009.63 1009.47 1009.27 1009.11 1008.99 1008.95 1008.87 1008.79 1008.71 1008.67 1008.67 1008.63 1008.59 1008.55 1008.55 1008.47 1008.39 1008.27
1014.59 1014.47 1014.35 1014.23 1014.11 1014.11 1014.07 1013.95 1013.87 1013.79 1013.67 1013.63 1013.55 1013.43 1013.35 1013.27 1013.19 1013.11 1013.11 1013.07 1013.07 1012.99 1012.91 1012.87 1012.83 1012.83 1012.75 1012.67 1012.59 1012.55 1012.47 1012.39 1012.27 1012.19 1012.07 1011.91 1011.75 1011.67 1011.55 1011.39 1011.27 1011.19 1011.07 1010.95 1010.87 1010.83 1010.67 1010.39 1010.19 1009.95 1009.71 1009.43 1009.27 1009.11 1008.95 1008.83 1008.71 1008.59 1008.51 1008.39 1008.39 1008.35 1008.31 1008.27 1008.27 1008.27 1008.19 1008.15 1008.07
1014.39 1014.27 1014.15 1014.03 1013.95 1013.95 1013.87 1013.79 1013.67 1013.59 1013.51 1013.43 1013.35 1013.27 1013.15 1013.11 1013.07 1013.03 1013.03 1012.99 1012.99 1012.95 1012.91 1012.83 1012.75 1012.71 1012.67 1012.67 1012.55 1012.55 1012.43 1012.31 1012.23 1012.11 1011.95 1011.75 1011.63 1011.51 1011.35 1011.19 1011.07 1010.99 1010.83 1010.71 1010.63 1010.55 1010.39 1010.23 1009.99 1009.83 1009.55 1009.31 1009.07 1008.87 1008.75 1008.63 1008.47 1008.35 1008.27 1008.15 1008.07 1007.99 1007.95 1007.95 1007.99 1007.99 1007.95 1007.91 1007.83
1014.19 1014.11 1013.99 1013.91 1013.83 1013.75 1013.67 1013.63 1013.55 1013.43 1013.35 1013.27 1013.19 1013.11 1013.03 1012.99 1012.95 1012.95 1012.95 1012.95 1012.95 1012.87 1012.83 1012.83 1012.71 1012.63 1012.63 1012.59 1012.55 1012.47 1012.39 1012.27 1012.11 1011.95 1011.79 1011.55 1011.39 1011.27 1011.11 1010.99 1010.83 1010.71 1010.63 1010.47 1010.35 1010.23 1010.11 1009.95 1009.83 1009.63 1009.39 1009.15 1008.91 1008.67 1008.55 1008.39 1008.23 1008.11 1007.95 1007.83 1007.75 1007.67 1007.63 1007.67 1007.71 1007.75 1007.75 1007.71 1007.67
1014.03 1013.95 1013.87 1013.79 1013.67 1013.63 1013.55 1013.47 1013.35 1013.27 1013.19 1013.11 1012.99 1012.95 1012.91 1012.91 1012.87 1012.87 1012.87 1012.87 1012.83 1012.83 1012.75 1012.71 1012.67 1012.55 1012.51 1012.43 1012.39 1012.35 1012.27 1012.07 1011.95 1011.75 1011.55 1011.35 1011.15 1010.99 1010.87 1010.75 1010.59 1010.47 1010.35 1010.19 1010.07 1009.91 1009.79 1009.67 1009.55 1009.39 1009.23 1008.99 1008.75 1008.51 1008.27 1008.11 1007.95 1007.79 1007.67 1007.55 1007.43 1007.39 1007.35 1007.39 1007.43 1007.47 1007.51 1007.51 1007.51
1013.95 1013.83 1013.75 1013.67 1013.55 1013.47 1013.39 1013.31 1013.19 1013.11 1013.03 1012.99 1012.87 1012.83 1012.83 1012.79 1012.75 1012.75 1012.75 1012.75 1012.75 1012.67 1012.67 1012.59 1012.55 1012.47 1012.39 1012.27 1012.23 1012.19 1012.11 1011.87 1011.67 1011.51 1011.27 1011.07 1010.87 1010.71 1010.55 1010.43 1010.27 1010.15 1010.07 1009.95 1009.83 1009.63 1009.47 1009.39 1009.27 1009.11 1008.99 1008.83 1008.55 1008.31 1008.11 1007.87 1007.67 1007.51 1007.35 1007.27 1007.19 1007.11 1007.07 1007.11 1007.15 1007.23 1007.23 1007.23 1007.27
1013.83 1013.67 1013.59 1013.51 1013.43 1013.35 1013.23 1013.11 1013.07 1012.99 1012.91 1012.83 1012.75 1012.67 1012.67 1012.67 1012.59 1012.55 1012.55 1012.55 1012.55 1012.55 1012.51 1012.43 1012.39 1012.31 1012.23 1012.11 1012.03 1011.95 1011.87 1011.67 1011.39 1011.19 1010.99 1010.83 1010.59 1010.43 1010.27 1010.11 1009.95 1009.83 1009.75 1009.63 1009.51 1009.31 1009.15 1009.03 1008.91 1008.83 1008.67 1008.55 1008.35 1008.11 1007.87 1007.63 1007.39 1007.19 1007.03 1006.99 1006.91 1006.83 1006.79 1006.79 1006.83 1006.91 1006.95 1006.95 1006.99
1013.67 1013.55 1013.43 1013.39 1013.27 1013.15 1013.07 1012.99 1012.91 1012.83 1012.71 1012.67 1012.59 1012.55 1012.47 1012.43 1012.39 1012.39 1012.35 1012.27 1012.27 1012.31 1012.27 1012.23 1012.11 1012.07 1011.95 1011.91 1011.79 1011.67 1011.59 1011.39 1011.15 1010.95 1010.71 1010.55 1010.31 1010.11 1009.95 1009.75 1009.63 1009.51 1009.39 1009.27 1009.11 1008.99 1008.87 1008.71 1008.59 1008.47 1008.39 1008.27 1008.07 1007.83 1007.63 1007.39 1007.15 1006.91 1006.75 1006.63 1006.55 1006.47 1006.43 1006.43 1006.55 1006.59 1006.63 1006.67 1006.67
1013.55 1013.39 1013.31 1013.27 1013.11 1012.99 1012.91 1012.83 1012.71 1012.63 1012.55 1012.43 1012.39 1012.35 1012.27 1012.23 1012.23 1012.19 1012.11 1012.07 1012.03 1012.03 1011.99 1011.95 1011.87 1011.79 1011.67 1011.55 1011.47 1011.35 1011.23 1011.11 1010.87 1010.63 1010.39 1010.15 1009.95 1009.75 1009.55 1009.39 1009.27 1009.15 1009.07 1008.95 1008.83 1008.67 1008.55 1008.43 1008.27 1008.15 1008.07 1007.95 1007.75 1007.55 1007.39 1007.15 1006.91 1006.67 1006.47 1006.35 1006.23 1006.11 1006.11 1006.11 1006.19 1006.27 1006.35 1006.39 1006.39
1013.43 1013.31 1013.23 1013.11 1012.99 1012.87 1012.75 1012.67 1012.55 1012.43 1012.35 1012.27 1012.23 1012.15 1012.11 1012.03 1011.99 1011.95 1011.87 1011.79 1011.75 1011.71 1011.67 1011.63 1011.55 1011.51 1011.39 1011.27 1011.11 1010.99 1010.83 1010.67 1010.51 1010.27 1009.99 1009.83 1009.59 1009.39 1009.19 1009.11 1008.95 1008.83 1008.67 1008.55 1008.43 1008.27 1008.19 1008.11 1007.95 1007.83 1007.71 1007.63 1007.43 1007.27 1007.03 1006.83 1006.59 1006.35 1006.15 1005.99 1005.87 1005.79 1005.71 1005.75 1005.83 1005.95 1005.99 1006.07 1006.11
1013.39 1013.27 1013.11 1012.99 1012.87 1012.75 1012.63 1012.47 1012.35 1012.27 1012.19 1012.11 1012.03 1011.95 1011.91 1011.83 1011.79 1011.67 1011.59 1011.51 1011.43 1011.39 1011.35 1011.27 1011.23 1011.11 1011.03 1010.91 1010.75 1010.59 1010.39 1010.23 1010.07 1009.87 1009.67 1009.43 1009.23 1008.99 1008.83 1008.75 1008.63 1008.47 1008.31 1008.23 1008.07 1007.91 1007.79 1007.67 1007.59 1007.51 1007.39 1007.27 1007.11 1006.91 1006.71 1006.55 1006.31 1006.07 1005.83 1005.67 1005.55 1005.43 1005.39 1005.39 1005.51 1005.59 1005.67 1005.67 1005.75
1013.39 1013.27 1013.07 1012.91 1012.79 1012.63 1012.47 1012.31 1012.19 1012.11 1011.99 1011.91 1011.83 1011.79 1011.67 1011.63 1011.55 1011.43 1011.35 1011.27 1011.15 1011.11 1011.03 1010.95 1010.87 1010.79 1010.67 1010.55 1010.39 1010.23 1010.07 1009.83 1009.63 1009.43 1009.27 1009.07 1008.87 1008.67 1008.51 1008.39 1008.31 1008.11 1007.91 1007.75 1007.63 1007.51 1007.39 1007.27 1007.15 1007.11 1007.03 1006.91 1006.67 1006.51 1006.31 1006.15 1005.95 1005.71 1005.55 1005.35 1005.23 1005.11 1005.07 1005.07 1005.15 1005.27 1005.35 1005.39 1005.43
1013.39 1013.23 1013.03 1012.83 1012.67 1012.51 1012.35 1012.19 1012.07 1011.95 1011.83 1011.71 1011.67 1011.55 1011.47 1011.39 1011.27 1011.19 1011.11 1010.99 1010.83 1010.75 1010.67 1010.55 1010.51 1010.39 1010.27 1010.11 1009.99 1009.87 1009.67 1009.43 1009.19 1008.99 1008.75 1008.59 1008.47 1008.27 1008.11 1008.03 1007.91 1007.71 1007.51 1007.35 1007.23 1007.11 1006.99 1006.95 1006.83 1006.67 1006.55 1006.47 1006.27 1006.11 1005.91 1005.71 1005.55 1005.35 1005.15 1004.99 1004.87 1004.79 1004.71 1004.71 1004.83 1004.99 1005.03 1005.07 1005.15
1013.35 1013.15 1012.99 1012.79 1012.63 1012.43 1012.27 1012.11 1011.95 1011.79 1011.63 1011.55 1011.43 1011.35 1011.27 1011.15 1011.07 1010.95 1010.83 1010.67 1010.55 1010.39 1010.31 1010.23 1010.11 1009.99 1009.87 1009.71 1009.55 1009.39 1009.27 1009.03 1008.79 1008.55 1008.31 1008.11 1007.95 1007.83 1007.71 1007.59 1007.43 1007.27 1007.11 1006.95 1006.79 1006.63 1006.59 1006.59 1006.55 1006.39 1006.27 1006.11 1005.95 1005.75 1005.55 1005.35 1005.11 1004.95 1004.75 1004.63 1004.51 1004.39 1004.39 1004.43 1004.55 1004.67 1004.79 1004.83 1004.91
1013.27 1013.11 1012.95 1012.75 1012.55 1012.39 1012.19 1011.99 1011.83 1011.67 1011.51 1011.39 1011.27 1011.15 1011.07 1010.95 1010.83 1010.67 1010.55 1010.39 1010.23 1010.11 1009.95 1009.87 1009.79 1009.67 1009.51 1009.35 1009.11 1008.95 1008.75 1008.55 1008.39 1008.15 1007.95 1007.75 1007.55 1007.39 1007.27 1007.19 1007.03 1006.83 1006.67 1006.43 1006.27 1006.11 1006.11 1006.11 1006.11 1006.07 1005.99 1005.83 1005.63 1005.43 1005.23 1004.99 1004.75 1004.55 1004.39 1004.27 1004.11 1004.11 1004.11 1004.15 1004.31 1004.47 1004.55 1004.63 1004.71
1013.27 1013.07 1012.87 1012.71 1012.55 1012.31 1012.11 1011.95 1011.75 1011.59 1011.39 1011.27 1011.15 1010.99 1010.83 1010.75 1010.59 1010.43 1010.27 1010.11 1009.95 1009.79 1009.67 1009.59 1009.47 1009.31 1009.11 1008.95 1008.71 1008.47 1008.27 1008.07 1007.95 1007.75 1007.55 1007.39 1007.19 1006.99 1006.83 1006.67 1006.51 1006.35 1006.11 1005.95 1005.75 1005.67 1005.59 1005.55 1005.55 1005.55 1005.55 1005.47 1005.31 1005.11 1004.87 1004.59 1004.39 1004.19 1003.99 1003.83 1003.79 1003.71 1003.75 1003.87 1004.07 1004.27 1004.39 1004.51 1004.55
1013.27 1013.11 1012.87 1012.67 1012.47 1012.27 1012.03 1011.83 1011.67 1011.55 1011.35 1011.19 1011.03 1010.87 1010.67 1010.55 1010.39 1010.23 1010.03 1009.83 1009.67 1009.55 1009.39 1009.27 1009.11 1008.99 1008.79 1008.55 1008.27 1008.03 1007.83 1007.67 1007.55 1007.39 1007.19 1007.03 1006.83 1006.59 1006.39 1006.19 1005.99 1005.79 1005.59 1005.43 1005.27 1005.19 1005.11 1004.99 1004.95 1004.95 1004.95 1004.95 1004.83 1004.67 1004.47 1004.27 1003.99 1003.83 1003.59 1003.43 1003.35 1003.35 1003.43 1003.55 1003.83 1004.11 1004.27 1004.39 1004.55
1013.23 1013.03 1012.83 1012.63 1012.39 1012.19 1011.95 1011.83 1011.67 1011.47 1011.27 1011.11 1010.95 1010.75 1010.55 1010.35 1010.15 1009.95 1009.79 1009.59 1009.43 1009.27 1009.11 1008.91 1008.75 1008.59 1008.39 1008.11 1007.87 1007.67 1007.47 1007.31 1007.15 1006.99 1006.83 1006.59 1006.39 1006.11 1005.91 1005.71 1005.51 1005.27 1005.07 1004.95 1004.83 1004.71 1004.59 1004.51 1004.43 1004.39 1004.35 1004.35 1004.31 1004.19 1003.95 1003.75 1003.55 1003.35 1003.15 1003.03 1002.99 1002.99 1003.15 1003.35 1003.67 1003.91 1004.11 1004.27 1004.39
1013.19 1012.99 1012.83 1012.59 1012.35 1012.11 1011.91 1011.75 1011.55 1011.39 1011.23 1011.03 1010.83 1010.63 1010.39 1010.19 1009.95 1009.75 1009.55 1009.39 1009.15 1008.99 1008.83 1008.67 1008.47 1008.27 1007.99 1007.75 1007.55 1007.35 1007.11 1006.91 1006.75 1006.59 1006.39 1006.19 1005.91 1005.63 1005.39 1005.19 1004.99 1004.75 1004.55 1004.39 1004.27 1004.15 1004.07 1003.95 1003.87 1003.83 1003.75 1003.71 1003.75 1003.67 1003.47 1003.27 1003.07 1002.91 1002.75 1002.67 1002.63 1002.71 1002.87 1003.11 1003.43 1003.71 1003.95 1004.11 1004.31
1013.15 1012.99 1012.83 1012.55 1012.31 1012.07 1011.83 1011.63 1011.47 1011.31 1011.11 1010.91 1010.67 1010.47 1010.27 1010.03 1009.79 1009.55 1009.31 1009.11 1008.87 1008.67 1008.51 1008.35 1008.15 1007.91 1007.67 1007.39 1007.23 1007.03 1006.79 1006.55 1006.39 1006.19 1005.99 1005.75 1005.43 1005.11 1004.83 1004.67 1004.39 1004.15 1003.95 1003.83 1003.71 1003.59 1003.47 1003.39 1003.27 1003.19 1003.11 1003.15 1003.19 1003.11 1002.95 1002.75 1002.55 1002.39 1002.35 1002.31 1002.39 1002.47 1002.67 1002.95 1003.23 1003.51 1003.71 1003.95 1004.15
1013.11 1012.95 1012.71 1012.51 1012.23 1011.95 1011.75 1011.55 1011.39 1011.19 1010.99 1010.79 1010.55 1010.31 1010.07 1009.83 1009.55 1009.31 1009.11 1008.87 1008.67 1008.39 1008.19 1007.99 1007.79 1007.55 1007.27 1007.07 1006.87 1006.67 1006.39 1006.23 1005.95 1005.75 1005.55 1005.27 1004.99 1004.67 1004.35 1004.11 1003.83 1003.59 1003.39 1003.27 1003.15 1002.99 1002.83 1002.71 1002.63 1002.55 1002.55 1002.55 1002.55 1002.51 1002.39 1002.23 1002.11 1001.99 1001.99 1002.03 1002.11 1002.27 1002.43 1002.71 1003.03 1003.27 1003.55 1003.71 1003.91
1013.11 1012.91 1012.67 1012.39 1012.11 1011.87 1011.67 1011.51 1011.27 1011.11 1010.87 1010.63 1010.39 1010.11 1009.83 1009.55 1009.31 1009.07 1008.83 1008.67 1008.43 1008.23 1007.95 1007.71 1007.47 1007.23 1006.99 1006.67 1006.47 1006.23 1005.95 1005.75 1005.51 1005.27 1005.03 1004.83 1004.55 1004.19 1003.83 1003.55 1003.27 1002.99 1002.79 1002.63 1002.47 1002.31 1002.15 1002.07 1001.95 1001.87 1001.87 1001.95 1001.95 1001.95 1001.83 1001.71 1001.67 1001.67 1001.67 1001.79 1001.91 1002.03 1002.27 1002.51 1002.79 1003.03 1003.27 1003.51 1003.63
1013.11 1012.83 1012.55 1012.31 1012.07 1011.83 1011.59 1011.39 1011.15 1010.99 1010.71 1010.43 1010.15 1009.91 1009.67 1009.39 1009.11 1008.83 1008.55 1008.35 1008.19 1007.99 1007.71 1007.43 1007.19 1006.95 1006.67 1006.39 1006.11 1005.83 1005.55 1005.27 1005.03 1004.79 1004.55 1004.27 1003.99 1003.67 1003.31 1002.95 1002.63 1002.35 1002.11 1001.95 1001.83 1001.67 1001.51 1001.39 1001.31 1001.27 1001.27 1001.39 1001.43 1001.39 1001.27 1001.27 1001.31 1001.35 1001.39 1001.55 1001.71 1001.91 1002.11 1002.39 1002.63 1002.83 1003.07 1003.27 1003.51
1012.99 1012.75 1012.51 1012.23 1011.99 1011.75 1011.47 1011.27 1010.99 1010.75 1010.47 1010.19 1009.87 1009.59 1009.35 1009.15 1008.87 1008.63 1008.35 1008.11 1007.91 1007.67 1007.39 1007.11 1006.83 1006.59 1006.31 1006.03 1005.75 1005.47 1005.19 1004.83 1004.55 1004.31 1004.03 1003.75 1003.47 1003.11 1002.71 1002.31 1001.95 1001.67 1001.47 1001.31 1001.15 1000.99 1000.87 1000.83 1000.67 1000.67 1000.75 1000.83 1000.91 1000.87 1000.83 1000.87 1000.99 1001.07 1001.19 1001.39 1001.63 1001.83 1002.11 1002.39 1002.59 1002.83 1002.99 1003.23 1003.39
1012.87 1012.67 1012.43 1012.15 1011.87 1011.55 1011.27 1011.03 1010.79 1010.51 1010.19 1009.91 1009.63 1009.35 1009.07 1008.83 1008.55 1008.31 1008.11 1007.87 1007.59 1007.27 1006.99 1006.67 1006.47 1006.23 1005.91 1005.59 1005.31 1005.07 1004.83 1004.47 1004.11 1003.79 1003.47 1003.23 1002.99 1002.59 1002.11 1001.67 1001.27 1000.99 1000.79 1000.67 1000.51 1000.35 1000.27 1000.15 1000.11 1000.11 1000.19 1000.35 1000.39 1000.43 1000.43 1000.55 1000.67 1000.83 1001.03 1001.27 1001.55 1001.83 1002.11 1002.39 1002.67 1002.87 1003.11 1003.27 1003.51
1012.79 1012.55 1012.31 1011.99 1011.67 1011.35 1011.07 1010.83 1010.55 1010.27 1009.91 1009.63 1009.35 1009.07 1008.79 1008.51 1008.23 1007.95 1007.75 1007.55 1007.27 1006.95 1006.59 1006.31 1006.07 1005.79 1005.51 1005.19 1004.87 1004.55 1004.27 1003.99 1003.67 1003.31 1002.99 1002.67 1002.39 1002.07 1001.59 1001.11 1000.67 1000.31 1000.11 999.95 999.83 999.71 999.59 999.47 999.39 999.47 999.63 999.83 999.95 1000.03 1000.11 1000.31 1000.55 1000.75 1000.99 1001.27 1001.55 1001.83 1002.11 1002.39 1002.67 1002.95 1003.19 1003.39 1003.63
1012.63 1012.39 1012.15 1011.83 1011.51 1011.15 1010.87 1010.59 1010.31 1009.99 1009.67 1009.35 1009.07 1008.75 1008.47 1008.23 1007.91 1007.59 1007.39 1007.27 1006.99 1006.63 1006.27 1005.95 1005.67 1005.39 1005.03 1004.75 1004.39 1004.03 1003.71 1003.43 1003.19 1002.87 1002.47 1002.11 1001.79 1001.47 1001.07 1000.55 1000.07 999.67 999.39 999.27 999.11 998.99 998.83 998.71 998.63 998.67 998.99 999.31 999.51 999.67 999.91 1000.15 1000.47 1000.71 1000.99 1001.27 1001.63 1001.95 1002.19 1002.47 1002.75 1003.03 1003.27 1003.51 1003.71
1012.47 1012.27 1011.95 1011.67 1011.31 1010.99 1010.67 1010.39 1010.07 1009.75 1009.43 1009.11 1008.75 1008.43 1008.15 1007.91 1007.63 1007.31 1007.11 1006.95 1006.67 1006.35 1005.95 1005.59 1005.23 1004.87 1004.55 1004.31 1003.95 1003.55 1003.11 1002.83 1002.59 1002.31 1001.99 1001.59 1001.23 1000.91 1000.55 1000.11 999.55 999.11 998.75 998.55 998.39 998.27 998.07 997.95 997.91 998.11 998.43 998.83 999.11 999.35 999.67 1000.03 1000.39 1000.71 1000.99 1001.31 1001.67 1002.03 1002.31 1002.59 1002.87 1003.19 1003.47 1003.67 1003.83
1012.35 1012.11 1011.83 1011.55 1011.19 1010.83 1010.51 1010.15 1009.83 1009.55 1009.27 1008.91 1008.55 1008.23 1007.91 1007.67 1007.39 1007.11 1006.83 1006.59 1006.31 1005.99 1005.67 1005.27 1004.83 1004.43 1004.15 1003.87 1003.51 1003.07 1002.63 1002.23 1001.95 1001.75 1001.47 1001.11 1000.75 1000.39 1000.07 999.67 999.11 998.55 998.11 997.83 997.63 997.43 997.35 997.35 997.51 997.83 998.15 998.51 998.79 999.11 999.51 999.91 1000.31 1000.67 1000.99 1001.35 1001.67 1002.07 1002.43 1002.79 1003.07 1003.39 1003.67 1003.95 1004.11
1012.23 1011.95 1011.67 1011.35 1011.07 1010.75 1010.39 1009.99 1009.67 1009.31 1008.99 1008.75 1008.39 1008.07 1007.75 1007.43 1007.11 1006.83 1006.55 1006.27 1005.95 1005.67 1005.27 1004.87 1004.43 1004.07 1003.75 1003.47 1003.11 1002.67 1002.19 1001.75 1001.39 1001.19 1000.99 1000.67 1000.27 999.91 999.51 999.07 998.55 998.03 997.55 997.23 996.99 996.87 996.95 997.15 997.39 997.71 998.03 998.35 998.67 998.99 999.35 999.71 1000.19 1000.59 1000.99 1001.31 1001.67 1002.07 1002.51 1002.95 1003.27 1003.59 1003.91 1004.19 1004.51
Wind_Speed
4 4 4 3 3 3 3 3 3 3 3 3 4 4 4 4 4 5 4 4 4 5 5 5 5 6 6 8 9 10 10 11 12 12 13 13 13 14 14 14 13 13 12 11 10 9 8 8 7 6 6 5 6 6 6 6 7 9 9 9 9 9 10 12 12 13 14 15 13
5 5 5 4 3 3 3 3 3 3 3 3 4 4 4 4 5 5 5 5 4 4 5 5 5 5 6 8 8 9 10 11 12 12 12 12 13 13 13 13 14 14 13 12 11 9 8 8 7 7 6 6 7 7 7 6 6 8 10 11 9 9 9 10 11 12 13 13 13
5 5 4 3 3 3 3 3 3 4 4 4 4 4 5 5 5 5 5 5 5 5 5 5 5 5 6 7 8 8 9 9 10 11 11 11 12 13 13 13 14 14 14 13 12 11 9 9 7 7 7 7 8 8 8 7 6 7 9 10 8 8 7 8 9 10 10 10 11
5 4 4 3 4 4 3 3 4 5 5 5 5 5 5 5 5 5 5 5 5 5 5 5 5 5 5 6 7 7 8 8 9 10 10 11 12 13 13 14 14 15 14 14 13 13 12 10 8 7 7 9 9 9 8 7 7 7 7 8 7 7 8 7 8 8 9 10 10
4 4 3 3 4 4 4 4 5 5 5 5 5 5 5 5 5 5 5 5 5 5 6 6 5 5 5 6 6 7 7 8 8 8 9 10 11 12 13 14 14 14 14 14 13 13 12 11 9 8 8 8 8 8 8 8 8 8 7 7 7 7 7 7 7 8 8 10 10
4 4 3 3 4 4 4 4 5 6 6 5 6 7 7 6 6 6 6 6 6 7 7 7 6 6 5 6 6 6 7 7 7 8 9 10 10 11 13 14 14 14 14 14 14 13 12 11 9 8 7 7 7 8 9 9 8 8 9 8 8 7 7 8 7 8 8 10 12
4 4 4 4 4 4 5 5 6 6 6 6 8 9 9 8 7 8 8 7 7 6 6 6 6 6 5 6 6 6 6 7 7 8 9 9 10 11 12 12 13 13 14 14 14 13 11 10 8 7 7 7 7 8 9 8 8 9 9 10 9 7 7 8 7 7 9 12 15
4 4 4 4 5 5 6 6 6 6 6 7 8 9 10 10 9 9 8 7 6 6 5 5 5 5 5 6 6 6 7 7 8 8 9 9 11 11 12 12 13 13 14 14 13 13 11 9 7 7 7 6 7 8 9 9 9 10 10 11 10 8 8 8 7 8 10 13 15
4 5 5 5 6 6 6 7 7 7 7 8 9 10 10 10 9 9 8 7 6 6 5 5 5 6 6 6 7 7 7 8 9 9 9 10 11 12 12 12 13 13 14 13 14 14 13 10 9 8 7 7 8 8 9 10 10 11 11 11 10 10 10 9 9 9 11 12 15
5 5 5 6 6 7 7 8 8 8 9 9 10 10 10 9 9 8 7 6 5 5 5 5 5 6 7 7 8 8 8 8 9 10 11 11 12 13 13 13 14 14 15 14 14 14 13 11 11 10 9 9 10 11 11 11 11 12 11 9 9 10 11 10 10 10 11 12 14
6 6 6 6 7 8 8 8 8 8 8 9 10 10 9 9 8 7 6 5 5 6 6 5 6 7 8 8 8 9 9 9 10 11 12 13 14 14 15 15 15 16 16 16 14 13 13 12 12 13 13 12 12 12 12 12 12 12 12 11 11 11 12 12 11 10 11 12 13
8 7 7 7 8 8 8 8 8 8 8 9 9 9 9 8 7 6 6 5 6 6 6 6 7 8 8 8 9 9 10 11 11 12 13 14 15 15 16 16 16 17 17 17 15 13 13 13 14 15 16 15 12 11 12 12 13 13 13 13 12 12 12 12 12 10 10 10 12
9 8 8 8 8 8 8 8 8 7 8 9 9 8 8 7 7 6 6 6 6 6 7 7 7 8 8 9 9 10 11 12 12 13 13 14 15 16 16 17 17 17 17 16 15 14 14 15 16 17 18 17 14 13 13 14 14 14 14 14 13 13 13 13 12 11 10 11 11
9 9 8 8 9 8 8 8 8 7 8 9 8 8 7 6 6 5 5 6 7 7 7 8 8 8 8 10 10 11 12 12 13 14 15 15 16 16 17 17 17 17 16 15 15 15 16 16 17 18 19 19 18 17 16 16 15 15 15 15 14 14 14 13 12 11 11 11 11
10 9 9 9 9 8 8 8 8 7 8 9 8 7 6 6 5 5 5 6 7 7 8 8 9 9 10 12 13 13 14 14 15 16 16 17 17 17 17 17 17 17 17 16 16 16 17 18 18 19 19 20 20 20 19 18 17 16 15 15 15 14 13 12 11 11 11 11 11
10 9 9 9 9 9 8 8 7 7 8 8 7 6 6 5 5 5 6 7 7 7 8 9 10 11 12 13 15 16 16 17 17 18 18 18 18 18 18 18 18 18 17 17 17 17 17 17 18 18 19 21 21 21 20 19 18 17 17 16 15 14 13 12 12 11 11 11 11
10 9 9 9 10 10 9 9 8 7 7 7 7 6 5 5 5 6 6 7 7 8 9 11 11 12 13 15 16 16 17 18 19 19 19 19 19 19 19 19 19 18 18 18 18 18 18 18 18 18 19 21 21 22 22 21 19 18 18 17 16 15 14 13 12 12 12 12 13
10 10 10 10 11 11 10 10 9 8 8 8 7 6 6 6 6 7 8 8 9 10 11 12 12 13 15 17 17 17 17 19 20 20 20 20 21 21 20 20 20 19 19 19 19 19 20 20 20 20 19 20 21 21 21 21 20 19 18 18 17 15 14 13 13 12 12 13 14
11 11 11 12 12 11 11 11 10 9 8 8 7 7 7 7 8 9 9 10 10 11 12 13 14 14 16 18 19 18 18 19 21 21 22 21 21 21 21 21 20 20 20 19 20 20 20 21 21 21 20 20 21 21 21 21 20 19 18 18 17 16 15 14 14 13 13 14 14
12 12 12 12 12 12 12 11 10 10 9 8 8 9 9 9 9 10 11 12 12 13 14 14 15 16 18 19 20 20 19 18 20 21 22 21 21 21 21 21 21 21 21 20 21 21 21 21 22 22 21 21 22 22 22 22 21 20 19 18 17 16 16 15 14 14 14 15 15
12 12 12 12 12 12 12 12 11 11 10 10 10 10 10 10 10 11 12 13 14 14 15 16 17 18 19 20 21 21 20 18 19 20 21 21 21 21 21 21 21 21 20 20 21 22 23 23 23 23 22 22 22 23 22 22 21 20 19 18 17 16 16 15 15 15 16 16 16
12 12 13 13 13 13 13 13 12 11 11 11 10 10 10 10 11 12 13 13 14 15 16 17 18 19 19 20 21 21 20 19 19 19 20 20 21 21 21 20 21 21 21 21 22 23 24 24 24 23 23 22 23 23 23 22 21 20 20 19 18 17 16 15 15 15 16 17 17
13 13 13 13 14 14 14 13 13 12 12 11 11 11 11 11 12 12 13 13 14 15 16 17 17 18 19 19 20 20 20 20 20 20 20 20 21 21 21 20 21 22 22 21 22 22 22 22 22 22 22 22 22 23 23 23 22 20 19 19 19 17 16 15 15 15 16 16 17
14 14 14 13 14 14 14 14 14 13 13 12 12 12 12 12 12 13 13 14 15 15 16 15 16 17 18 19 20 20 21 21 21 22 22 21 21 21 21 21 21 21 21 19 19 20 20 19 18 19 20 20 20 21 21 21 21 20 19 19 18 17 15 14 15 15 16 16 16
15 15 15 14 15 15 15 15 14 14 14 14 14 13 13 13 13 13 14 15 16 16 17 18 17 17 17 18 19 20 20 21 22 22 22 22 21 21 21 20 19 18 18 17 21 24 25 22 19 18 17 18 18 19 19 20 20 20 19 19 17 16 14 14 15 15 15 16 15
15 15 15 15 15 15 16 15 16 16 16 16 16 16 15 14 14 14 15 16 17 18 18 19 18 17 17 17 18 19 20 19 20 20 21 21 21 21 21 19 18 16 16 19 24 27 29 28 26 23 20 18 18 18 18 19 19 20 19 19 17 15 14 13 14 14 14 13 14
15 15 15 15 16 16 16 16 17 17 17 18 18 18 17 16 15 15 16 17 18 18 18 18 18 17 17 17 18 20 20 19 19 19 20 21 21 22 22 20 18 16 17 21 25 28 29 29 29 28 25 21 19 19 18 18 19 19 19 19 17 15 14 14 13 13 12 11 12
15 15 15 16 16 17 17 17 17 18 18 19 19 18 18 18 17 17 17 18 18 18 17 17 16 15 14 14 16 18 19 19 18 18 19 20 21 22 22 20 19 19 20 25 27 29 29 29 30 30 28 24 21 19 19 20 19 18 17 16 15 15 14 14 13 12 12 11 11
15 15 15 16 16 17 17 17 17 18 18 18 19 19 19 19 19 19 19 19 19 18 17 15 14 13 13 14 16 18 19 20 19 18 19 20 21 22 22 22 21 22 25 29 30 31 31 31 31 31 30 28 21 18 16 17 17 15 14 13 13 13 13 13 12 12 12 11 11
15 15 15 16 16 17 17 17 17 17 17 17 18 19 19 19 20 20 21 21 20 19 18 16 15 15 17 18 18 19 19 20 19 19 20 21 23 23 23 23 22 23 25 29 31 32 32 33 32 32 31 30 25 21 17 16 16 14 13 12 12 13 14 13 13 13 13 12 12
15 15 15 16 16 16 17 16 16 17 17 17 18 19 20 20 21 21 21 21 20 20 19 19 19 20 20 20 20 20 21 21 21 21 21 22 23 24 24 24 25 25 26 29 31 32 33 33 33 32 32 31 27 22 19 17 16 14 13 12 13 14 14 14 14 15 15 15 14
15 16 16 16 16 17 17 17 17 17 17 19 20 20 21 21 21 21 21 20 20 20 20 20 21 21 21 21 21 21 22 22 22 21 21 22 23 24 24 25 25 25 27 30 32 33 34 34 33 33 32 31 27 24 21 19 16 14 13 13 14 15 15 14 14 16 17 17 16
15 16 16 17 17 17 17 17 17 17 18 19 20 21 22 22 22 21 21 20 19 20 20 21 21 21 22 21 22 22 22 22 22 23 23 23 24 25 25 25 23 24 26 30 32 33 34 34 33 33 32 31 26 24 21 19 15 13 12 13 14 16 17 16 16 17 18 19 17
15 16 17 18 18 18 18 17 17 17 17 19 20 21 21 22 22 22 21 20 19 19 19 20 20 21 21 21 21 22 22 21 21 22 23 24 24 25 25 23 20 21 25 29 31 32 32 32 32 32 31 29 25 21 19 17 14 12 12 13 14 15 16 16 17 18 18 19 17
15 16 17 17 18 18 18 17 17 17 18 19 20 20 21 21 22 22 21 20 20 20 20 20 20 20 20 20 21 21 22 22 22 22 23 23 24 25 26 25 23 24 27 30 32 32 32 32 31 30 29 27 21 17 15 15 14 13 13 14 14 14 15 15 15 16 17 17 17
16 16 16 17 18 19 19 19 19 19 19 20 20 20 21 21 21 20 20 20 20 20 20 20 19 19 20 20 20 20 21 22 23 23 23 23 24 25 26 26 26 27 29 31 32 32 32 31 31 30 28 24 17 13 12 13 12 13 14 14 14 14 14 14 14 14 14 15 15
16 16 16 17 18 19 20 20 20 20 20 21 21 21 21 21 21 20 19 18 19 19 19 19 19 20 20 20 20 21 21 22 23 23 24 24 24 25 26 26 27 27 29 30 31 32 32 32 32 31 27 19 13 11 11 11 10 11 13 14 14 14 13 12 12 13 13 13 15
17 17 17 18 19 20 20 21 21 21 21 21 21 21 21 20 20 19 18 17 18 18 19 19 19 20 20 21 21 22 23 23 23 24 24 24 24 24 25 26 26 26 26 28 30 31 32 33 33 29 22 14 13 12 11 10 10 11 12 12 12 12 12 10 10 11 12 14 16
18 19 19 20 20 21 21 21 21 21 21 21 21 21 21 20 19 18 18 17 17 18 19 19 20 21 21 21 21 22 23 23 23 23 23 23 23 24 25 25 26 26 26 28 30 31 32 31 27 22 20 16 14 12 11 11 12 12 12 12 11 11 11 10 9 10 11 15 19
19 19 20 21 21 21 21 22 22 21 21 21 22 22 22 20 19 18 18 17 18 18 19 20 21 21 21 21 21 22 22 23 22 22 22 22 23 25 26 26 27 27 28 29 29 27 25 22 21 22 22 16 14 13 12 12 13 13 13 12 11 11 10 10 9 9 11 13 17
19 20 20 21 21 21 22 22 22 22 22 22 22 22 21 20 19 18 18 17 18 18 17 18 20 21 22 21 20 20 21 22 22 22 22 23 24 26 27 27 27 25 23 21 19 18 19 22 25 25 22 16 14 13 12 12 13 14 14 13 12 11 11 10 10 10 10 11 12
Wind_Direction
277 272 268 261 256 253 252 255 255 259 264 269 273 275 277 280 282 285 287 289 290 291 292 293 295 298 303 308 313 315 317 317 318 317 316 316 315 314 314 312 309 305 301 296 293 291 291 291 291 292 291 290 290 290 290 292 295 296 297 297 297 296 294 290 283 275 264 252 247
280 277 272 267 262 260 263 268 270 271 272 272 273 274 275 276 278 280 281 280 280 281 284 287 290 295 301 307 311 314 315 315 315 315 315 314 314 314 314 313 311 308 304 298 294 290 287 286 286 286 287 287 287 288 288 287 289 291 292 293 294 295 294 291 289 284 276 264 254
281 281 279 277 274 273 276 279 280 281 280 280 278 278 278 277 277 277 277 274 274 276 280 283 287 291 296 302 306 308 310 310 312 313 313 314 314 315 314 313 311 308 305 300 295 290 286 282 280 279 280 282 283 284 285 285 285 286 288 290 291 292 292 290 293 293 290 282 267
281 280 278 274 272 269 271 277 282 283 283 284 284 282 280 278 277 275 274 274 276 277 277 278 281 285 291 296 299 301 304 307 310 311 312 313 314 314 313 312 310 308 304 300 294 289 285 281 278 276 276 276 276 277 279 283 284 283 284 286 287 288 288 289 292 294 294 292 282
280 273 265 261 263 264 268 276 285 288 289 289 290 288 285 281 278 277 277 278 277 275 274 275 278 282 286 291 295 299 303 307 310 311 312 312 312 312 311 310 308 306 303 299 293 287 282 278 277 275 274 273 273 272 273 276 279 280 281 282 282 282 284 286 289 291 291 291 288
272 267 262 260 267 274 283 290 293 293 294 294 293 290 287 284 281 278 277 276 275 274 275 276 279 283 288 294 298 303 306 308 309 310 310 309 309 309 308 306 305 304 302 299 293 287 280 274 274 273 272 271 271 270 270 272 274 276 278 278 277 277 279 281 284 286 287 285 284
266 267 272 276 283 291 296 298 298 297 297 295 291 286 283 279 277 274 273 273 275 277 278 279 281 285 291 298 302 305 307 307 307 307 308 307 307 306 305 304 304 303 302 301 298 292 285 276 273 271 270 270 271 271 270 269 269 271 274 276 276 276 276 276 278 280 280 280 279
275 279 283 289 294 296 298 298 297 297 295 292 287 282 279 276 274 274 274 276 278 278 279 281 284 287 293 299 301 303 304 305 306 306 306 305 304 303 303 303 303 303 303 303 303 300 296 287 278 272 268 267 268 268 267 265 265 266 269 271 273 273 272 272 273 274 274 276 276
287 288 290 294 296 295 294 294 292 291 289 286 282 279 276 275 274 274 276 277 277 278 281 284 288 291 295 299 300 302 304 305 305 305 304 303 302 302 302 302 303 303 303 303 303 303 302 298 289 279 270 265 264 264 264 262 263 263 265 267 271 271 270 267 267 269 270 272 272
289 290 292 295 294 293 292 292 290 287 285 284 281 279 278 277 276 275 275 276 280 284 287 289 292 295 298 299 300 301 302 302 302 301 301 300 299 300 300 301 301 301 301 301 301 301 301 298 292 284 277 269 265 263 262 260 260 260 261 263 266 267 268 266 265 266 267 267 267
287 288 289 290 290 290 290 291 289 287 286 284 283 282 281 280 280 280 281 285 292 294 295 295 298 300 300 301 301 300 300 299 299 298 298 297 297 297 297 297 297 297 297 297 298 297 296 293 290 286 282 275 269 266 263 260 258 258 258 258 259 262 264 264 264 264 264 264 262
286 285 285 285 286 287 288 288 287 286 285 284 284 283 283 283 283 286 292 301 304 304 304 306 307 306 305 304 302 300 299 297 297 296 295 294 294 294 294 294 293 293 293 293 294 293 292 290 289 288 286 281 276 271 266 261 258 256 256 255 254 256 258 261 261 261 260 260 258
283 283 283 283 284 284 284 285 285 284 284 283 283 283 284 284 288 295 303 311 312 313 313 314 312 309 307 305 303 300 298 296 295 293 292 291 290 290 290 290 289 289 290 289 290 289 289 289 289 289 288 286 282 276 270 265 260 256 254 252 250 250 252 255 256 256 256 254 252
282 282 282 282 283 283 284 284 284 284 284 283 282 283 284 287 295 304 312 315 316 316 315 314 312 309 307 305 302 299 296 294 292 290 288 286 286 286 286 285 285 286 286 286 286 286 286 287 287 288 288 287 284 280 275 269 263 257 253 249 248 247 248 251 251 251 249 247 244
284 283 283 284 284 285 285 285 285 285 284 283 283 285 288 294 303 310 314 314 313 313 312 311 308 306 304 302 299 297 294 292 289 287 285 284 283 282 282 281 281 282 282 282 283 283 283 284 285 286 286 286 285 282 278 272 265 258 252 247 245 244 244 246 245 243 241 238 234
288 288 288 288 288 288 288 287 287 287 286 284 286 289 294 300 306 309 310 309 308 308 307 305 303 302 301 298 296 294 292 289 287 285 283 281 280 279 279 278 278 278 279 280 281 281 281 281 282 282 283 283 283 282 280 275 268 260 253 247 243 241 240 240 239 237 234 230 225
293 293 294 294 293 292 292 291 290 289 288 287 290 294 298 301 304 303 303 302 302 302 301 299 299 298 297 295 293 292 290 287 285 283 281 280 279 278 277 276 275 276 277 278 279 279 280 280 279 279 280 280 281 280 279 275 269 262 255 248 243 239 237 235 234 232 229 224 219
297 298 298 297 297 295 294 293 292 290 289 290 292 294 296 297 298 298 297 296 297 296 296 295 295 294 293 292 290 289 287 285 283 281 279 278 277 276 275 274 274 274 275 276 277 278 279 279 279 278 278 278 278 277 277 275 269 263 255 248 243 238 235 232 230 228 225 221 217
298 298 298 297 297 296 295 294 292 291 290 289 291 292 293 293 294 294 294 293 293 293 292 292 292 291 290 289 287 285 283 282 281 279 277 276 275 274 273 273 273 273 274 275 276 277 278 278 278 278 277 276 275 275 274 273 269 263 256 249 242 237 232 229 227 225 222 219 216
296 296 296 296 296 295 294 293 292 290 289 288 289 289 290 291 291 291 291 290 290 290 290 289 289 288 287 286 284 283 280 279 278 277 275 274 273 272 272 272 273 273 274 274 275 276 276 277 277 276 275 274 273 273 272 271 268 263 256 249 242 236 230 226 224 223 220 217 215
297 297 296 296 296 295 294 292 291 289 288 287 287 287 288 289 289 288 288 288 288 289 288 287 287 285 284 283 282 280 278 277 275 275 274 273 272 271 271 272 273 273 274 274 274 275 275 276 275 275 274 273 272 271 270 269 267 262 256 249 241 234 228 223 222 221 219 217 214
301 300 300 299 298 296 295 293 291 290 288 287 287 287 287 287 287 286 286 287 287 287 286 285 284 282 281 280 279 278 277 276 274 273 273 272 272 271 271 272 272 273 273 272 273 273 273 273 273 273 272 271 269 268 267 267 265 261 256 248 240 232 226 221 220 219 218 215 213
306 304 303 301 300 298 296 295 293 291 290 289 289 288 288 287 286 286 286 287 285 284 283 283 282 280 279 278 277 276 276 275 273 272 271 270 270 270 270 271 271 271 271 271 271 271 272 272 272 271 270 269 267 266 265 264 262 260 255 247 238 230 224 219 219 218 216 214 212
307 306 305 303 302 300 299 297 296 295 294 293 291 290 289 288 288 287 287 286 284 283 282 282 281 279 278 276 275 274 274 273 272 271 270 269 269 269 270 270 270 270 270 270 269 268 268 269 270 270 270 268 267 265 264 262 260 257 253 246 236 228 222 218 217 216 214 212 210
307 306 305 304 303 302 301 300 299 298 296 295 294 293 291 289 289 288 287 286 285 284 283 283 281 280 278 276 275 273 272 271 271 271 271 270 270 270 270 270 270 269 268 267 266 265 265 264 265 266 267 267 266 265 263 262 260 256 251 243 233 225 219 216 214 213 211 209 205
308 307 307 306 305 304 303 302 300 299 298 297 296 295 293 292 290 289 288 287 286 285 285 284 282 280 278 276 275 273 271 270 269 269 270 270 271 270 270 269 268 267 266 265 264 264 263 262 261 261 261 263 263 263 263 262 260 256 249 240 230 221 214 211 209 208 206 204 199
309 309 308 308 307 305 304 303 302 301 300 299 297 296 294 293 292 290 289 288 287 286 285 284 282 280 278 276 274 272 271 270 270 269 269 270 270 270 270 269 267 266 264 264 264 263 263 261 260 258 257 257 258 259 259 260 259 254 247 235 225 216 208 203 201 199 197 195 189
310 310 309 309 307 306 305 304 303 302 301 300 298 297 295 294 292 291 289 288 287 286 285 283 281 279 277 275 273 272 271 272 271 271 270 270 269 269 269 268 267 266 264 264 264 263 263 261 259 257 255 253 254 254 255 256 255 250 241 228 218 209 202 197 193 189 185 180 176
311 311 310 309 307 306 305 305 304 302 301 300 298 297 295 294 293 291 289 288 287 285 284 282 281 279 276 274 273 274 274 274 273 272 272 271 270 269 268 267 267 266 265 264 264 264 263 262 261 258 256 252 251 250 250 251 250 244 233 219 209 201 195 190 185 181 176 171 166
312 311 310 309 307 306 305 304 303 302 301 300 298 297 295 294 292 290 289 288 286 284 283 282 281 279 277 275 276 276 276 275 275 274 273 272 270 269 268 267 266 266 265 264 264 263 263 262 260 258 256 252 251 250 250 248 244 236 225 211 201 194 188 183 178 175 172 167 162
313 312 311 309 307 306 305 304 303 303 301 300 298 296 295 293 291 289 288 287 285 284 283 282 281 279 277 277 277 277 276 276 275 274 272 271 270 269 268 267 266 265 264 264 263 263 262 260 259 257 255 252 250 249 248 245 238 228 215 203 194 188 183 177 175 173 169 165 160
314 313 311 309 307 306 305 305 304 303 301 299 297 295 293 291 289 288 287 286 285 285 284 283 281 280 279 278 277 276 276 275 274 273 271 270 269 268 268 267 265 264 264 263 262 262 260 259 257 255 253 250 248 248 246 241 230 217 204 194 188 183 179 175 173 171 169 165 161
314 313 311 309 308 307 306 305 304 302 299 297 295 293 292 290 289 288 287 286 285 285 284 283 282 281 280 279 278 277 276 274 273 272 271 269 268 268 267 267 265 264 263 262 261 260 258 257 255 252 249 246 246 246 243 234 221 206 194 187 183 178 175 172 171 169 168 165 162
313 312 311 309 308 306 305 303 301 299 297 294 292 291 290 290 289 288 287 286 285 284 283 281 280 279 278 278 277 276 275 274 273 272 271 270 268 268 267 266 264 263 261 261 260 258 256 254 251 249 246 244 244 243 236 220 206 193 184 179 176 173 170 168 167 166 165 163 160
312 311 310 308 306 304 302 300 298 296 294 292 291 290 290 289 288 287 287 286 285 283 281 279 278 277 276 276 275 274 274 274 273 272 270 270 269 268 267 266 264 263 262 261 259 258 256 253 249 246 243 242 241 235 220 201 190 181 174 169 166 164 163 162 162 162 161 159 156
311 309 307 304 302 301 299 298 297 295 294 292 291 290 289 288 287 286 285 285 284 283 281 279 278 277 276 276 275 274 273 273 273 272 271 270 269 268 267 267 265 264 262 261 259 258 255 252 248 245 242 240 233 216 196 182 175 168 163 159 157 155 154 153 154 154 154 153 150
308 306 304 301 300 299 298 297 296 295 293 292 291 290 289 289 288 287 286 285 284 283 281 280 279 278 277 276 275 274 273 272 272 271 271 270 269 268 268 267 266 265 263 262 260 257 255 252 249 246 240 230 210 187 173 165 160 155 152 149 147 146 145 144 145 145 146 146 146
306 305 302 300 299 298 297 297 296 294 293 292 291 290 290 289 289 288 287 286 285 284 283 281 280 278 277 276 275 274 273 271 271 270 270 269 268 268 268 268 267 267 265 263 261 259 256 253 249 241 226 198 177 164 157 152 148 145 143 140 138 136 135 134 135 136 138 141 142
305 304 302 300 299 298 297 297 296 295 294 293 293 292 292 291 290 289 289 287 285 284 282 281 280 278 277 276 276 275 274 272 270 270 269 269 269 269 269 269 270 269 268 267 263 259 255 249 237 215 189 166 159 153 148 144 141 139 136 133 129 126 125 124 125 128 132 136 139
305 304 302 301 300 299 298 298 297 296 295 295 294 294 293 292 291 290 289 287 285 283 281 280 279 279 278 278 277 276 275 274 272 271 271 271 272 272 272 272 272 271 270 267 260 251 239 222 194 173 161 153 150 146 142 139 137 135 133 130 126 123 120 118 120 122 126 130 134
305 305 304 302 301 300 299 299 298 297 296 295 294 293 293 292 290 289 288 286 284 283 281 280 280 280 280 279 278 277 276 276 275 275 274 274 275 274 274 273 272 270 267 259 240 217 192 171 159 153 150 145 144 141 138 137 134 133 131 129 127 124 121 119 118 118 120 124 128